�������l�o���
Date,Time,MP-1(��Sv/h),MP-2(��Sv/h),MP-3(��Sv/h),MP-4(��Sv/h),MP-5(��Sv/h),MP-6(��Sv/h),MP-7(��Sv/h),MP-8(��Sv/h),����,����(m/s),���J
2018/09/30,00:00,0.768,1.148,0.812,1.434,1.036,0.458,0.797,0.757,��쐼,6.5,��
2018/09/30,00:10,0.770,1.149,0.810,1.433,1.033,0.457,0.794,0.758,��,6.2,�L
2018/09/30,00:20,0.768,1.147,0.813,1.432,1.033,0.457,0.796,0.758,��쐼,5.6,�L
2018/09/30,00:30,0.768,1.149,0.812,1.435,1.035,0.457,0.796,0.758,��쐼,4.9,�L
2018/09/30,00:40,0.767,1.152,0.811,1.435,1.038,0.458,0.795,0.758,��쐼,4.9,�L
2018/09/30,00:50,0.769,1.147,0.808,1.433,1.034,0.455,0.795,0.757,��쐼,4.0,�L
2018/09/30,01:00,0.768,1.148,0.810,1.434,1.033,0.457,0.795,0.757,��,4.6,�L
2018/09/30,01:10,0.766,1.144,0.809,1.435,1.033,0.457,0.794,0.758,��,3.9,�L
2018/09/30,01:20,0.768,1.144,0.811,1.434,1.032,0.456,0.795,0.758,��,4.0,�L
2018/09/30,01:30,0.766,1.144,0.811,1.432,1.033,0.455,0.794,0.756,��,4.1,�L
2018/09/30,01:40,0.768,1.145,0.808,1.434,1.031,0.455,0.795,0.757,��쐼,4.3,��
2018/09/30,01:50,0.766,1.142,0.809,1.432,1.032,0.455,0.794,0.755,��,5.1,��
2018/09/30,02:00,0.766,1.144,0.810,1.433,1.030,0.455,0.793,0.756,��,4.4,�L
2018/09/30,02:10,0.768,1.144,0.810,1.431,1.030,0.458,0.792,0.756,��쓌,3.7,�L
2018/09/30,02:20,0.767,1.145,0.810,1.435,1.033,0.456,0.794,0.756,��,3.7,�L
2018/09/30,02:30,0.768,1.142,0.808,1.432,1.033,0.457,0.795,0.756,��쓌,3.8,�L
2018/09/30,02:40,0.767,1.143,0.808,1.431,1.032,0.456,0.795,0.757,��,3.2,��
2018/09/30,02:50,0.768,1.144,0.809,1.432,1.033,0.456,0.796,0.755,��쓌,2.6,��
2018/09/30,03:00,0.770,1.145,0.809,1.433,1.032,0.457,0.795,0.758,�쓌,1.7,��
2018/09/30,03:10,0.768,1.146,0.809,1.436,1.036,0.456,0.797,0.756,�쓌,2.5,��
2018/09/30,03:20,0.768,1.144,0.810,1.433,1.034,0.455,0.796,0.758,��쓌,2.6,��
2018/09/30,03:30,0.769,1.144,0.809,1.434,1.034,0.457,0.795,0.756,��쓌,3.1,��
2018/09/30,03:40,0.768,1.143,0.811,1.432,1.031,0.456,0.794,0.755,��쓌,3.1,��
2018/09/30,03:50,0.769,1.147,0.809,1.432,1.033,0.457,0.795,0.757,��쓌,3.0,��
2018/09/30,04:00,0.766,1.146,0.809,1.434,1.031,0.456,0.794,0.755,�쓌,2.3,��
2018/09/30,04:10,0.768,1.146,0.809,1.432,1.034,0.455,0.795,0.758,�쓌,2.0,��
2018/09/30,04:20,0.768,1.148,0.811,1.432,1.034,0.456,0.796,0.758,�쓌,1.4,��
2018/09/30,04:30,0.767,1.146,0.811,1.434,1.034,0.455,0.795,0.758,���쓌,1.2,��
2018/09/30,04:40,0.767,1.144,0.811,1.434,1.033,0.455,0.795,0.756,�쓌,0.9,��
2018/09/30,04:50,0.767,1.146,0.809,1.433,1.034,0.458,0.794,0.757,�쓌,1.4,�L
2018/09/30,05:00,0.766,1.143,0.809,1.434,1.031,0.456,0.793,0.756,��쓌,1.7,�L
2018/09/30,05:10,0.767,1.142,0.809,1.434,1.031,0.456,0.795,0.757,�쓌,2.3,�L
2018/09/30,05:20,0.764,1.135,0.808,1.430,1.023,0.454,0.792,0.754,���쓌,1.7,�L
2018/09/30,05:30,0.766,1.133,0.809,1.428,1.025,0.454,0.793,0.754,���쓌,1.7,�L
2018/09/30,05:40,0.765,1.136,0.807,1.427,1.025,0.454,0.792,0.754,��쓌,2.0,�L
2018/09/30,05:50,0.764,1.133,0.806,1.428,1.023,0.455,0.792,0.750,�쓌,1.7,�L
2018/09/30,06:00,0.764,1.132,0.805,1.428,1.023,0.454,0.791,0.750,�쓌,2.3,�L
2018/09/30,06:10,0.766,1.131,0.805,1.428,1.021,0.455,0.789,0.751,��쓌,5.2,�L
2018/09/30,06:20,0.765,1.132,0.803,1.426,1.022,0.455,0.789,0.752,��,4.2,�L
2018/09/30,06:30,0.763,1.130,0.804,1.426,1.021,0.455,0.789,0.752,��,4.0,�L
2018/09/30,06:40,0.762,1.133,0.805,1.425,1.020,0.454,0.790,0.752,��쓌,5.1,�L
2018/09/30,06:50,0.762,1.130,0.804,1.423,1.022,0.453,0.790,0.750,��쓌,5.3,�L
2018/09/30,07:00,0.761,1.130,0.801,1.423,1.016,0.452,0.788,0.751,��쓌,6.3,�L
2018/09/30,07:10,0.761,1.125,0.802,1.423,1.017,0.452,0.789,0.748,��쓌,6.7,�L
2018/09/30,07:20,0.755,1.118,0.799,1.418,1.009,0.452,0.788,0.748,��쓌,7.4,�L
2018/09/30,07:30,0.751,1.113,0.796,1.414,1.006,0.447,0.784,0.747,��,5.6,�L
2018/09/30,07:40,0.754,1.116,0.796,1.411,1.010,0.449,0.786,0.747,��쓌,6.3,�L
2018/09/30,07:50,0.755,1.117,0.797,1.413,1.009,0.451,0.787,0.746,��,7.1,�L
2018/09/30,08:00,0.753,1.118,0.795,1.413,1.011,0.450,0.786,0.747,��,4.7,�L
2018/09/30,08:10,0.754,1.119,0.794,1.411,1.012,0.451,0.787,0.747,��,4.1,�L
2018/09/30,08:20,0.754,1.118,0.798,1.413,1.009,0.450,0.787,0.749,��쐼,3.5,�L
2018/09/30,08:30,0.757,1.119,0.798,1.412,1.011,0.448,0.785,0.748,��쐼,3.3,�L
2018/09/30,08:40,0.758,1.115,0.799,1.411,1.012,0.452,0.786,0.748,��쐼,2.2,�L
2018/09/30,08:50,0.757,1.117,0.797,1.412,1.009,0.451,0.784,0.747,��쐼,1.9,�L
2018/09/30,09:00,0.755,1.118,0.797,1.409,1.011,0.452,0.785,0.746,��,1.9,�L
2018/09/30,09:10,0.756,1.118,0.795,1.411,1.011,0.451,0.786,0.747,��쐼,0.9,�L
2018/09/30,09:20,0.756,1.119,0.799,1.409,1.008,0.451,0.787,0.748,��,0.8,�L
2018/09/30,09:30,0.755,1.117,0.795,1.406,1.009,0.451,0.786,0.747,�k��,1.7,�L
2018/09/30,09:40,0.755,1.117,0.795,1.408,1.008,0.452,0.786,0.745,�k�k��,1.7,�L
2018/09/30,09:50,0.753,1.118,0.794,1.404,1.009,0.452,0.785,0.746,�k�k��,1.5,�L
2018/09/30,10:00,0.752,1.116,0.792,1.404,1.003,0.452,0.784,0.748,�k,1.7,�L
2018/09/30,10:10,0.753,1.112,0.793,1.399,1.005,0.450,0.784,0.745,�k�k��,2.9,�L
2018/09/30,10:20,0.753,1.115,0.793,1.401,1.007,0.452,0.786,0.747,�k�k��,3.0,�L
2018/09/30,10:30,0.755,1.115,0.796,1.399,1.007,0.451,0.787,0.747,�k��,2.6,�L
2018/09/30,10:40,0.753,1.113,0.790,1.396,1.007,0.451,0.784,0.744,�k,2.2,�L
2018/09/30,10:50,0.751,1.109,0.790,1.395,1.005,0.449,0.784,0.746,�k,2.3,�L
2018/09/30,11:00,0.752,1.108,0.789,1.393,1.002,0.451,0.784,0.745,�k,3.2,�L
2018/09/30,11:10,0.752,1.112,0.793,1.392,1.003,0.450,0.785,0.745,�k,3.8,�L
2018/09/30,11:20,0.749,1.108,0.789,1.395,1.002,0.451,0.785,0.746,�k,4.6,�L
2018/09/30,11:30,0.752,1.109,0.794,1.396,1.003,0.452,0.783,0.745,�k,4.5,�L
2018/09/30,11:40,0.752,1.112,0.795,1.396,1.005,0.450,0.784,0.744,�k,5.1,�L
2018/09/30,11:50,0.751,1.109,0.793,1.398,1.003,0.451,0.783,0.746,�k�k��,5.1,�L
2018/09/30,12:00,0.752,1.113,0.792,1.398,1.006,0.450,0.785,0.747,�k�k��,5.5,�L
2018/09/30,12:10,0.751,1.113,0.794,1.397,1.007,0.450,0.784,0.746,�k�k��,5.9,�L
2018/09/30,12:20,0.753,1.111,0.791,1.395,1.005,0.450,0.786,0.745,�k�k��,6.1,�L
2018/09/30,12:30,0.752,1.111,0.790,1.395,1.006,0.451,0.785,0.745,�k�k��,6.0,�L
2018/09/30,12:40,0.752,1.111,0.792,1.392,1.002,0.451,0.784,0.745,�k�k��,7.5,�L
2018/09/30,12:50,0.753,1.112,0.791,1.394,1.005,0.450,0.785,0.745,�k�k��,7.2,�L
2018/09/30,13:00,0.754,1.111,0.791,1.392,1.004,0.450,0.786,0.745,�k�k��,7.5,�L
2018/09/30,13:10,0.752,1.113,0.794,1.394,1.005,0.450,0.786,0.743,�k�k��,7.9,�L
2018/09/30,13:20,0.756,1.115,0.793,1.396,1.006,0.452,0.786,0.746,�k�k��,6.4,�L
2018/09/30,13:30,0.756,1.116,0.795,1.396,1.005,0.452,0.787,0.747,�k�k��,6.5,�L
2018/09/30,13:40,0.757,1.114,0.793,1.398,1.007,0.450,0.788,0.747,�k�k��,5.6,�L
2018/09/30,13:50,0.752,1.116,0.797,1.399,1.008,0.452,0.787,0.749,�k�k��,6.6,�L
2018/09/30,14:00,0.754,1.118,0.796,1.404,1.006,0.451,0.789,0.748,�k�k��,6.2,�L
2018/09/30,14:10,0.758,1.121,0.797,1.401,1.009,0.452,0.787,0.750,�k�k��,5.5,��
2018/09/30,14:20,0.755,1.122,0.797,1.405,1.011,0.453,0.790,0.750,�k�k��,5.2,��
2018/09/30,14:30,0.758,1.119,0.798,1.403,1.008,0.453,0.788,0.748,�k�k��,4.4,��
2018/09/30,14:40,0.755,1.121,0.798,1.405,1.013,0.452,0.788,0.750,�k�k��,4.8,��
2018/09/30,14:50,0.758,1.122,0.796,1.405,1.012,0.452,0.789,0.752,�k�k��,4.4,��
2018/09/30,15:00,0.758,1.121,0.797,1.408,1.011,0.451,0.790,0.747,�k�k��,3.7,��
2018/09/30,15:10,0.758,1.121,0.798,1.409,1.011,0.454,0.792,0.750,�k�k��,3.2,��
2018/09/30,15:20,0.756,1.121,0.795,1.409,1.013,0.452,0.788,0.750,�k�k��,4.6,��
2018/09/30,15:30,0.759,1.122,0.797,1.406,1.011,0.451,0.791,0.749,�k,4.5,��
2018/09/30,15:40,0.757,1.123,0.796,1.410,1.012,0.452,0.791,0.750,�k�k��,3.0,��
2018/09/30,15:50,0.758,1.123,0.797,1.410,1.014,0.452,0.791,0.748,�k�k��,2.6,��
2018/09/30,16:00,0.758,1.123,0.796,1.410,1.016,0.453,0.791,0.748,�k�k��,3.7,��
2018/09/30,16:10,0.759,1.123,0.798,1.410,1.014,0.452,0.790,0.750,�k�k��,3.7,��
2018/09/30,16:20,0.759,1.124,0.799,1.412,1.016,0.453,0.790,0.751,�k,4.5,��
2018/09/30,16:30,0.759,1.126,0.798,1.414,1.016,0.451,0.790,0.752,�k,3.9,��
2018/09/30,16:40,0.759,1.127,0.798,1.412,1.013,0.453,0.792,0.750,�k,4.9,��
2018/09/30,16:50,0.759,1.127,0.802,1.411,1.014,0.452,0.791,0.752,�k�k��,4.2,�L
2018/09/30,17:00,0.757,1.127,0.801,1.413,1.016,0.452,0.791,0.751,�k,3.2,�L
2018/09/30,17:10,0.759,1.129,0.800,1.413,1.017,0.453,0.791,0.751,�k�k��,2.3,�L
2018/09/30,17:20,0.759,1.127,0.800,1.413,1.017,0.453,0.791,0.752,�k�k��,2.0,�L
2018/09/30,17:30,0.759,1.128,0.801,1.413,1.017,0.455,0.791,0.752,�k,0.8,�L
2018/09/30,17:40,0.759,1.125,0.798,1.410,1.016,0.455,0.789,0.749,���k��,1.7,�L
2018/09/30,17:50,0.758,1.121,0.799,1.411,1.014,0.452,0.789,0.749,�k�k��,2.6,�L
2018/09/30,18:00,0.758,1.121,0.799,1.410,1.013,0.451,0.791,0.750,�k�k��,2.6,�L
2018/09/30,18:10,0.757,1.120,0.797,1.411,1.012,0.453,0.788,0.750,�k�k��,2.3,��
2018/09/30,18:20,0.758,1.120,0.797,1.410,1.011,0.451,0.790,0.750,�k,1.5,��
2018/09/30,18:30,0.755,1.124,0.797,1.410,1.014,0.452,0.791,0.750,�k�k��,1.4,��
2018/09/30,18:40,0.760,1.123,0.799,1.414,1.013,0.453,0.789,0.752,�k�k��,1.4,��
2018/09/30,18:50,0.760,1.124,0.798,1.412,1.013,0.454,0.790,0.750,�k,1.2,��
2018/09/30,19:00,0.759,1.123,0.800,1.411,1.015,0.456,0.790,0.750,�k��,1.1,�L
2018/09/30,19:10,0.759,1.126,0.798,1.412,1.016,0.452,0.790,0.751,��,0.9,�L
2018/09/30,19:20,0.759,1.127,0.801,1.412,1.018,0.453,0.791,0.750,�k,0.6,�L
2018/09/30,19:30,0.759,1.125,0.800,1.411,1.015,0.454,0.790,0.750,-,CALM,�L
2018/09/30,19:40,0.759,1.124,0.801,1.412,1.016,0.453,0.791,0.749,��,0.6,�L
2018/09/30,19:50,0.759,1.123,0.800,1.411,1.015,0.453,0.791,0.750,���쓌,1.1,�L
2018/09/30,20:00,0.758,1.123,0.800,1.413,1.013,0.453,0.791,0.749,��,1.5,�L
2018/09/30,20:10,0.759,1.122,0.799,1.411,1.013,0.453,0.788,0.750,�k��,0.9,�L
2018/09/30,20:20,0.756,1.120,0.798,1.411,1.012,0.453,0.790,0.749,�k�k��,1.7,�L
2018/09/30,20:30,0.752,1.117,0.795,1.406,1.008,0.452,0.785,0.745,��,2.9,�L
2018/09/30,20:40,0.748,1.111,0.793,1.399,1.006,0.450,0.784,0.744,�k,1.1,�L
2018/09/30,20:50,0.746,1.111,0.794,1.402,1.003,0.451,0.784,0.744,�k�k��,2.0,�L
2018/09/30,21:00,0.749,1.111,0.791,1.398,1.003,0.452,0.785,0.746,�k,1.4,�L
2018/09/30,21:10,0.746,1.099,0.787,1.389,0.990,0.448,0.781,0.742,�k��,2.3,�L
2018/09/30,21:20,0.741,1.088,0.781,1.381,0.987,0.446,0.779,0.739,�k�k��,1.1,�L
2018/09/30,21:30,0.744,1.097,0.787,1.382,0.988,0.445,0.780,0.741,�k�k��,1.5,�L
2018/09/30,21:40,0.745,1.098,0.785,1.382,0.991,0.448,0.780,0.743,�k�k��,2.0,�L
2018/09/30,21:50,0.742,1.096,0.784,1.380,0.988,0.447,0.776,0.740,�k�k��,2.9,�L
2018/09/30,22:00,0.745,1.100,0.785,1.384,0.989,0.447,0.779,0.743,�k�k��,3.3,�L
2018/09/30,22:10,0.746,1.097,0.783,1.379,0.987,0.447,0.779,0.740,���k��,1.5,�L
2018/09/30,22:20,0.741,1.088,0.781,1.375,0.983,0.447,0.776,0.741,�k,3.2,�L
2018/09/30,22:30,0.743,1.091,0.785,1.378,0.985,0.445,0.780,0.742,�k,3.0,�L
2018/09/30,22:40,0.746,1.096,0.787,1.380,0.988,0.447,0.781,0.743,�k,2.0,�L
2018/09/30,22:50,0.746,1.096,0.785,1.384,0.986,0.447,0.782,0.742,��,0.6,�L
2018/09/30,23:00,0.745,1.093,0.783,1.381,0.985,0.449,0.779,0.741,�쓌,2.8,�L
2018/09/30,23:10,0.739,1.083,0.779,1.368,0.975,0.446,0.775,0.739,�쐼,2.8,�L
2018/09/30,23:20,0.738,1.080,0.779,1.362,0.975,0.447,0.774,0.739,��쓌,3.8,�L
2018/09/30,23:30,0.742,1.089,0.781,1.375,0.980,0.448,0.778,0.741,��쓌,16.1,�L
2018/09/30,23:40,0.748,1.095,0.782,1.376,0.985,0.450,0.782,0.743,��쓌,19.3,��
2018/09/30,23:50,0.748,1.100,0.789,1.382,0.986,0.450,0.783,0.741,��쓌,21.5,�L
